Change the Weather History Date:

Tuesday, June 26, 2012

  Actual Average Record
Temperature  
Mean Temperature 81 °F 82 °F  
Max Temperature 85 °F 91 °F 100 °F (1950)
Min Temperature 76 °F 73 °F 66 °F (1893)
Degree Days  
Heating Degree Days 0 0  
Month to date heating degree days 0 0  
Since 1 June heating degree days 0 0  
Since 1 July heating degree days 313 571  
Cooling Degree Days 16 17  
Month to date cooling degree days 393 422  
Year to date cooling degree days 1432 1223  
Since 1 June cooling degree days 393 422  
Growing Degree Days 30 (Base 50)    
Moisture  
Dew Point 74 °F    
Average Humidity 79    
Maximum Humidity 88    
Minimum Humidity 70    
Precipitation  
Precipitation 0.08 in 0.24 in 3.47 in (1974)
Month to date precipitation 9.55 6.59  
Year to date precipitation 18.92 21.22  
Sea Level Pressure  
Sea Level Pressure 29.64 in    
Wind  
Wind Speed 17 mph (South)    
Max Wind Speed 24 mph    
Max Gust Speed 37 mph    
Visibility 10 miles    
Events Rain    
T = Trace of Precipitation, MM = Missing Value Source: NWS Daily Summary

Daily Weather History Graph

Daily Weather History Graph

Search for Another Location

Airport or City:

Trip Planner

Search our weather history database for the weather conditions in past years. The results will help you decide how hot, cold, wet, or windy it might be!

Date:

Astronomy

Jun. 26, 2012 Rise Set
Actual Time 6:29 AM EDT 8:26 PM EDT
Civil Twilight 6:03 AM EDT 8:53 PM EDT
Nautical Twilight 5:30 AM EDT 9:25 PM EDT
Astronomical Twilight 4:55 AM EDT 10:00 PM EDT
Moon 1:07 PM EDT (6/26) 12:28 AM EDT (6/26)
Length of Visible Light 14h 50m
Length of Day
13h 56m
Waxing Crescent, 45% of the Moon is Illuminated
Jun 26
Waxing Crescent
Jun 26
First Quarter
Jul 3
Full
Jul 10
Last Quarter
Jul 19
New

Hourly Weather History & Observations

Time (EDT) Temp. Heat Index Dew Point Humidity Pressure Visibility Wind Dir Wind Speed Gust Speed Precip Events Conditions
12:53 AM 78.8 °F - 73.4 °F 83% 29.67 in 10.0 mi SSE 16.1 mph 23.0 mph N/A   Overcast
1:53 AM 78.1 °F - 73.9 °F 87% 29.67 in 10.0 mi South 11.5 mph - 0.00 in   Overcast
2:20 AM 77.0 °F - 71.6 °F 83% 29.66 in 10.0 mi South 11.5 mph - 0.00 in Rain Light Rain
2:39 AM 75.2 °F - 73.4 °F 94% 29.66 in 10.0 mi SSE 6.9 mph - 0.00 in   Overcast
2:53 AM 77.0 °F - 73.9 °F 90% 29.65 in 10.0 mi SSE 12.7 mph 18.4 mph 0.00 in   Overcast
3:53 AM 78.1 °F - 73.9 °F 87% 29.64 in 10.0 mi South 16.1 mph 24.2 mph N/A   Overcast
4:21 AM 78.8 °F - 75.2 °F 89% 29.64 in 10.0 mi South 15.0 mph 23.0 mph N/A   Overcast
4:42 AM 77.0 °F - 75.2 °F 94% 29.63 in 10.0 mi SSE 17.3 mph 25.3 mph 0.00 in   Overcast
4:53 AM 78.8 °F - 73.4 °F 83% 29.63 in 10.0 mi South 15.0 mph 25.3 mph N/A   Overcast
5:53 AM 78.8 °F - 73.4 °F 83% 29.64 in 10.0 mi SSE 15.0 mph 21.9 mph N/A   Mostly Cloudy
6:19 AM 78.8 °F - 73.4 °F 83% 29.64 in 10.0 mi SSE 11.5 mph - 0.00 in Rain Light Rain
6:53 AM 77.0 °F - 73.9 °F 90% 29.65 in 6.0 mi South 13.8 mph 24.2 mph 0.00 in Rain Light Rain
7:30 AM 75.2 °F - 75.2 °F 100% 29.65 in 10.0 mi South 13.8 mph - 0.00 in Rain Light Rain
7:53 AM 77.0 °F - 73.4 °F 89% 29.65 in 10.0 mi SSE 15.0 mph - N/A Rain Light Rain
8:53 AM 77.0 °F - 73.4 °F 89% 29.65 in 10.0 mi SSE 16.1 mph 26.5 mph N/A Rain Light Rain
9:53 AM 78.8 °F - 73.4 °F 83% 29.65 in 10.0 mi South 17.3 mph 26.5 mph N/A Rain Light Rain
10:53 AM 80.6 °F 86.2 °F 75.2 °F 84% 29.66 in 10.0 mi South 21.9 mph 34.5 mph N/A   Overcast
11:53 AM 81.0 °F 87.3 °F 75.9 °F 85% 29.66 in 10.0 mi South 17.3 mph 32.2 mph 0.03 in Rain Light Rain
12:53 PM 82.0 °F 91.0 °F 78.1 °F 88% 29.64 in 10.0 mi South 16.1 mph 24.2 mph 0.00 in   Mostly Cloudy
1:20 PM 80.6 °F 86.2 °F 75.2 °F 84% 29.64 in 2.0 mi SSW 16.1 mph 23.0 mph 0.02 in Rain Rain
1:53 PM 82.4 °F 90.9 °F 77.0 °F 84% 29.63 in 10.0 mi South 16.1 mph 21.9 mph N/A   Mostly Cloudy
2:53 PM 84.0 °F 92.6 °F 75.9 °F 76% 29.62 in 10.0 mi SSW 23.0 mph 36.8 mph 0.00 in   Overcast
3:53 PM 82.0 °F 88.6 °F 75.0 °F 79% 29.61 in 9.0 mi SSW 19.6 mph 28.8 mph 0.00 in Rain Light Rain
4:10 PM 82.4 °F 89.5 °F 75.2 °F 79% 29.61 in 9.0 mi SSW 19.6 mph 26.5 mph 0.00 in Rain Light Rain
4:53 PM 84.0 °F 91.9 °F 75.0 °F 74% 29.60 in 10.0 mi SSW 23.0 mph 31.1 mph 0.00 in   Mostly Cloudy
5:53 PM 84.9 °F 91.4 °F 73.0 °F 67% 29.60 in 10.0 mi SSW 24.2 mph 31.1 mph N/A   Mostly Cloudy
6:09 PM 82.4 °F 88.2 °F 73.4 °F 74% 29.60 in 10.0 mi SSW 16.1 mph 27.6 mph N/A   Mostly Cloudy
6:53 PM 82.4 °F 88.2 °F 73.4 °F 74% 29.61 in 10.0 mi SSW 16.1 mph - N/A   Mostly Cloudy
7:47 PM 80.6 °F 86.2 °F 75.2 °F 84% 29.62 in 10.0 mi SSW 20.7 mph 26.5 mph 0.00 in   Mostly Cloudy
7:53 PM 81.0 °F 86.2 °F 73.9 °F 79% 29.62 in 10.0 mi SSW 21.9 mph 35.7 mph 0.00 in   Overcast
8:11 PM 80.6 °F 86.2 °F 75.2 °F 84% 29.63 in 10.0 mi SSW 19.6 mph 25.3 mph N/A   Mostly Cloudy
8:53 PM 80.1 °F 84.5 °F 73.9 °F 81% 29.64 in 10.0 mi South 15.0 mph 21.9 mph N/A   Overcast
9:19 PM 78.8 °F - 73.4 °F 83% 29.65 in 10.0 mi SSW 13.8 mph - N/A   Mostly Cloudy
9:53 PM 78.8 °F - 73.4 °F 83% 29.65 in 10.0 mi South 13.8 mph - N/A   Mostly Cloudy
10:38 PM 78.8 °F - 75.2 °F 89% 29.63 in 10.0 mi South 12.7 mph - N/A   Scattered Clouds
10:53 PM 78.8 °F - 73.4 °F 83% 29.63 in 10.0 mi South 19.6 mph 25.3 mph N/A   Scattered Clouds
11:53 PM 79.0 °F - 73.9 °F 84% 29.64 in 10.0 mi SSW 16.1 mph 25.3 mph N/A   Mostly Cloudy